This demonstration page uses our WeatherBlox Daily Observations layout. Learn more.

Left ArrowRight Arrow

Hourly Observations for June 12, 2021

Temp ( °F °C ) Dew Point ( °F °C ) Humidity (%) Winds ( mph kmh ) Pressure ( in mb ) Visibility ( mi km ) Precip ( " mm )
12:53 am 00:53 Clear 73 22.8 71 21.7 94 94 SW 5 7 29.85 1011 10 16 0.00 0.00
1:53 am 01:53 Clear 73 22.8 70 21.1 90 90 SW 5 7 29.84 1010 10 16 0.00 0.00
2:53 am 02:53 Clear 73 22.8 70 21.1 90 90 S 3 6 29.82 1010 10 16 0.00 0.00
3:53 am 03:53 Clear 73 22.8 70 21.1 90 90 W 7 11 29.82 1010 10 16 0.00 0.00
4:51 am 04:51 Mostly Cloudy 73 23 70 21 89 89 SW 3 6 29.81 1009 10 16 0.00 0.00
4:53 am 04:53 Mostly Cloudy 73 22.8 69 20.6 87 87 SW 3 6 29.81 1010 10 16 0.00 0.00
5:53 am 05:53 Cloudy 73 22.8 70 21.1 90 90 W 5 7 29.81 1010 10 16 0.00 0.00
6:53 am 06:53 Cloudy 73 22.8 70 21.1 90 90 W 6 9 29.82 1010 10 16 0.00 0.00
7:11 am 07:11 Cloudy 73 22.8 70 21.1 90 90 W 3 6 29.82 1010 10 16 0.00 0.00
7:53 am 07:53 Mostly Cloudy 74 23.3 71 21.7 91 91 W 7 11 29.83 1010 10 16 0.00 0.00
8:04 am 08:04 Mostly Cloudy 75 23.9 71 21.7 88 88 WNW 5 7 29.83 1010 10 16 0.00 0.00
8:49 am 08:49 Mostly Cloudy 77 25 72 22 83 83 Calm 29.82 1010 10 16 0.00 0.00
8:53 am 08:53 Mostly Cloudy 77 25 71 21.7 82 82 VRB 3 6 29.83 1010 10 16 0.00 0.00
9:21 am 09:21 Cloudy 78 25.6 71 21.7 79 79 WNW 9 15 29.83 1010 10 16 0.00 0.00
9:53 am 09:53 Mostly Cloudy 79 26.1 71 21.7 77 77 NW 12 19 29.85 1011 10 16 0.00 0.00
10:03 am 10:03 Partly Cloudy 79 26.1 71 21.7 77 77 NNW 9 15 29.84 1010 10 16 0.00 0.00
10:53 am 10:53 Partly Cloudy 81 27.2 71 21.7 72 72 NW 7 11 29.85 1011 10 16 0.00 0.00
11:53 am 11:53 Partly Cloudy 84 28.9 72 22.2 67 67 NW 12 19 29.85 1011 10 16 0.00 0.00
12:53 pm 12:53 Partly Cloudy 86 30 71 21.7 61 61 NW 10 17 29.83 1010 10 16 0.00 0.00
1:53 pm 13:53 Partly Cloudy with Nearby Thunderstorms 88 31.1 70 21.1 55 55 WNW 10 17 29.82 1010 10 16 0.00 0.00
2:22 pm 14:22 Partly Cloudy 80 26.7 68 20 67 67 W 12 19 29.81 1009 10 16 0.00 0.00
2:53 pm 14:53 Sunny 79 26.1 67 19.4 67 67 WSW 9 15 29.80 1009 10 16 0.00 0.00
3:53 pm 15:53 Sunny 87 30.6 71 21.7 59 59 WNW 14 22 29.77 1008 10 16 0.00 0.00
4:53 pm 16:53 Sunny 85 29.4 71 21.7 63 63 W 12 19 29.75 1008 10 16 0.00 0.00
5:53 pm 17:53 Sunny 83 28.3 69 20.6 63 63 WNW 8 13 29.76 1008 10 16 0.00 0.00
6:53 pm 18:53 Sunny 85 29.4 68 20 57 57 NNW 8 13 29.75 1007 10 16 0.00 0.00
7:53 pm 19:53 Sunny 84 28.9 69 20.6 61 61 W 8 13 29.75 1008 10 16 0.00 0.00
8:53 pm 20:53 Clear 81 27.2 69 20.6 67 67 VRB 3 6 29.79 1009 10 16 0.00 0.00
9:53 pm 21:53 Clear 79 26.1 69 20.6 72 72 Calm 29.81 1009 10 16 0.00 0.00
10:53 pm 22:53 Clear 76 24.4 69 20.6 79 79 NW 3 6 29.83 1010 10 16 0.00 0.00
11:53 pm 23:53 Clear 77 25 69 20.6 77 77 E 3 6 29.85 1011 10 16 0.00 0.00

Powered by AerisWeather